Wetbulb
76.60 76.41 77.61 73.94 65.04 61.50 57.44 58.66 63.47 61.51 61.92 64.35 63.97 62.10 63.41 64.83 63.04 60.45 72.84 73.76 73.45 74.31 75.42 76.49 77.77 77.63 76.70 77.23 76.97 76.16 76.38 76.58 76.60 76.41 76.96 75.91 75.77 75.54 75.67 75.42 75.58 75.42 75.16 75.58 76.28 76.62 76.53 76.65 76.79
77.12 77.08 76.22 72.90 60.01 56.22 57.04 62.55 60.76 63.14 64.85 65.06 65.31 64.03 64.76 63.92 69.18 69.50 71.40 73.87 73.77 74.19 75.40 75.54 77.25 77.63 77.04 77.07 77.04 76.33 76.47 76.63 76.58 76.25 76.58 76.60 76.13 75.58 75.62 75.80 75.42 75.28 74.31 74.97 75.57 76.64 76.59 76.67 76.66
79.22 77.94 73.39 66.43 60.90 55.82 56.71 62.04 63.28 64.60 64.53 64.39 61.27 66.38 66.09 65.39 69.55 70.54 74.09 74.13 73.82 73.99 75.54 76.40 76.52 77.48 76.84 76.58 76.50 76.61 76.58 76.52 76.14 75.97 75.94 76.00 75.97 76.05 75.33 75.85 75.86 74.61 74.70 75.12 76.17 76.62 76.71 76.78 76.68
77.33 77.24 73.82 61.43 59.43 61.16 62.44 64.18 65.03 63.57 63.39 63.24 63.41 63.86 68.80 71.24 70.00 72.43 74.33 74.36 73.31 74.30 75.34 76.79 76.97 76.60 76.44 76.33 76.39 76.19 76.03 75.86 75.72 75.58 75.38 75.38 75.61 76.39 75.91 75.55 76.03 75.52 75.55 76.08 76.29 76.08 76.36 76.22 76.35
77.95 73.49 61.27 60.23 60.23 63.10 64.16 65.78 65.77 63.31 62.54 61.62 65.70 64.15 65.61 70.86 73.25 73.65 74.06 74.54 73.27 74.23 75.17 75.72 77.70 77.31 76.41 76.17 76.30 76.11 76.28 76.16 75.50 75.19 75.02 74.96 74.38 74.41 74.79 75.30 75.94 75.94 76.03 75.68 75.97 75.97 76.08 76.41 75.85
70.52 67.03 59.61 57.33 60.05 63.46 65.12 66.46 65.38 64.05 65.02 65.08 65.13 64.52 64.10 71.32 72.09 72.66 73.18 72.92 73.96 73.32 73.55 75.01 76.52 76.38 76.46 76.16 76.05 75.50 75.13 74.85 74.49 74.20 74.32 74.30 73.86 73.85 73.88 74.58 75.04 75.99 75.83 76.02 75.94 75.69 75.66 75.92 76.21
67.27 63.32 59.67 59.34 59.79 61.73 64.23 67.04 64.91 64.95 65.22 65.18 67.87 63.30 67.35 70.31 72.34 72.36 72.60 72.03 72.16 71.86 72.65 73.82 74.45 75.93 75.64 75.53 75.33 75.28 74.41 74.21 73.99 74.07 74.41 74.30 74.56 73.66 74.72 74.78 75.05 75.63 76.05 76.18 75.94 75.83 75.44 75.44 75.39
68.91 65.54 60.93 60.74 58.66 60.06 64.91 66.52 67.43 65.92 64.94 68.50 69.61 64.00 64.88 70.46 72.50 71.50 70.69 71.49 71.48 71.83 72.22 73.52 74.13 74.07 74.06 73.80 75.19 74.80 74.69 74.66 74.46 74.44 74.55 74.49 74.46 73.54 74.91 75.78 75.72 75.85 75.88 75.93 76.08 75.80 75.83 75.44 75.19
70.12 62.40 59.79 59.95 60.19 61.08 65.59 65.05 67.84 68.97 66.33 66.45 67.30 67.87 69.29 71.53 72.46 70.42 68.96 69.42 70.25 70.62 71.13 72.23 72.17 72.62 73.41 72.29 75.10 74.96 75.28 75.67 75.47 75.53 75.33 76.24 74.78 74.15 75.99 75.92 76.17 75.91 76.13 76.08 75.83 75.83 75.75 75.53 75.42
65.50 62.16 61.43 63.10 64.15 62.58 64.21 65.40 66.10 65.54 65.08 65.36 66.06 68.90 69.74 70.49 70.55 69.36 67.69 67.75 67.88 68.96 70.47 71.25 71.53 73.04 73.68 73.42 75.79 75.85 75.18 75.43 76.35 77.07 76.10 78.29 77.07 76.60 76.42 76.32 76.57 75.80 76.36 76.00 76.11 75.83 75.61 75.57 74.55
64.88 61.71 63.88 64.47 64.87 64.73 63.62 64.10 67.03 65.22 64.13 65.79 65.46 66.80 68.09 69.09 69.24 69.21 68.54 68.69 69.27 70.33 70.51 71.40 73.13 73.28 74.34 74.32 75.24 75.13 74.50 76.27 76.34 76.92 77.97 78.31 77.33 78.01 76.96 77.95 75.55 75.84 75.61 75.92 75.69 75.57 75.06 74.17 73.47
62.93 65.37 65.52 64.82 65.59 64.53 63.65 64.74 63.74 64.99 65.52 68.18 68.75 68.31 68.24 68.19 68.35 68.61 67.34 67.93 69.86 69.27 70.96 72.17 73.43 74.66 74.83 74.91 74.52 75.08 74.63 75.87 75.84 75.96 77.21 77.19 77.12 77.27 78.05 74.61 77.26 77.47 75.86 76.42 76.60 75.21 74.14 74.03 74.63
63.34 64.60 65.96 66.71 66.43 65.65 66.02 64.36 63.73 64.44 65.32 67.48 69.10 68.52 68.02 68.33 68.70 69.41 70.12 70.15 71.12 70.42 72.42 72.95 74.36 75.44 75.71 75.74 75.20 75.51 76.45 75.54 77.16 77.44 77.84 78.14 77.28 76.85 77.82 78.29 77.89 76.48 75.67 76.04 76.11 76.80 75.14 75.76 74.31
64.78 64.97 65.35 66.41 66.32 66.20 64.53 64.59 65.38 65.93 66.48 66.47 67.73 67.81 68.98 69.01 69.09 69.98 70.23 70.16 70.43 71.07 71.73 72.54 73.07 75.42 75.84 75.98 76.58 78.23 77.78 76.89 77.76 77.62 77.81 77.94 77.35 78.24 78.12 76.90 75.53 76.74 76.99 75.73 75.83 75.91 75.71 75.69 75.53
64.92 62.56 64.36 65.35 66.19 65.61 66.74 63.25 63.56 67.33 67.29 65.30 66.43 67.79 68.69 69.11 69.52 69.99 70.75 71.00 71.46 71.59 72.04 72.82 74.04 74.77 76.07 76.87 77.09 77.00 77.04 77.05 77.29 77.65 78.29 77.81 78.12 78.74 78.39 78.73 77.08 76.89 77.01 78.09 75.82 75.73 75.72 74.94 73.57
63.84 63.03 59.88 64.62 65.82 66.17 65.94 61.01 65.10 67.78 67.18 65.16 65.99 67.26 68.37 69.23 69.44 70.52 70.91 71.10 71.78 71.93 71.85 73.34 74.21 75.05 76.62 76.65 77.31 77.06 76.98 77.49 78.56 78.77 78.13 79.00 79.42 78.48 77.39 77.47 76.71 77.29 77.26 75.93 77.26 77.84 75.13 74.88 75.32
62.39 56.33 59.84 62.09 66.43 65.47 64.92 62.47 66.63 67.74 67.32 65.92 66.00 66.73 67.96 68.88 69.51 70.69 71.27 71.64 72.07 72.90 73.18 73.31 74.96 75.02 75.91 77.46 77.34 77.71 77.48 77.82 78.00 79.29 78.28 79.31 79.09 78.96 77.05 76.99 77.18 78.80 75.95 76.58 76.51 74.87 76.38 73.84 73.75
58.11 58.63 59.32 59.85 64.23 65.13 63.57 63.59 66.43 67.48 67.28 66.75 66.93 67.05 67.29 67.66 68.48 71.71 72.40 72.81 73.79 75.03 75.74 75.79 75.42 76.23 77.34 77.10 77.65 76.83 77.25 77.54 78.65 77.82 78.46 79.45 78.68 78.38 78.41 77.44 78.27 77.57 76.32 76.12 76.24 76.94 75.64 73.78 75.59
61.88 59.54 58.18 61.17 65.23 63.67 63.20 63.18 65.82 67.47 67.39 67.08 67.20 67.10 66.87 67.24 69.81 71.93 72.72 73.21 73.41 74.22 75.12 75.69 75.69 77.00 76.39 75.60 75.13 74.91 75.00 75.86 77.31 78.37 79.61 79.10 79.08 78.57 78.75 77.00 77.58 76.77 76.69 77.83 76.77 76.74 73.22 75.66 75.21
59.90 58.89 59.17 61.62 63.25 63.32 62.92 62.76 66.29 67.34 67.24 67.91 67.82 67.63 66.97 67.50 69.01 71.13 72.13 72.88 72.99 73.46 74.48 75.54 76.02 77.22 77.03 75.77 75.44 75.79 76.02 75.94 76.44 77.72 79.19 79.26 78.88 78.83 77.75 78.45 76.93 78.05 76.01 77.26 77.12 77.53 74.45 73.64 76.68
59.88 58.81 58.06 58.52 62.58 63.48 62.11 60.88 63.54 67.24 67.98 68.47 68.79 68.98 68.13 67.46 67.93 70.20 71.38 72.25 72.96 73.39 74.22 75.19 76.33 77.47 77.73 77.98 76.10 76.00 77.36 78.86 76.62 76.63 77.96 77.64 78.37 78.32 79.04 79.04 78.54 78.02 77.91 75.82 77.86 76.67 75.76 74.97 75.03
57.79 60.87 59.11 57.94 59.09 54.87 63.46 50.65 61.43 64.97 66.09 67.25 68.09 68.38 68.11 67.57 68.55 70.14 70.76 71.34 72.17 73.17 74.46 75.32 76.39 77.23 78.13 78.30 78.38 79.15 75.13 74.34 75.91 76.55 77.46 76.90 77.19 78.77 78.43 79.20 78.97 78.69 77.46 75.93 76.43 77.40 77.36 76.69 74.14
58.64 60.61 59.42 58.75 58.01 57.27 57.86 55.36 59.02 64.23 63.99 65.70 67.67 68.54 68.63 68.23 68.37 69.38 70.08 71.13 71.99 72.88 73.47 74.65 76.27 77.72 79.04 79.05 80.09 76.68 77.06 75.14 75.44 75.96 79.60 79.13 80.01 79.58 79.02 79.13 79.37 78.33 76.95 78.11 78.23 78.53 77.54 76.14 74.89
60.60 59.23 59.21 59.57 58.05 52.93 55.77 56.93 51.60 60.02 62.68 65.53 67.53 68.73 69.35 69.11 68.48 69.53 70.42 71.29 71.47 72.42 73.01 73.88 76.05 79.00 79.26 79.17 78.30 78.64 78.14 77.13 76.34 76.37 76.13 76.28 77.45 78.04 79.38 79.48 80.24 78.64 78.55 78.01 77.81 78.23 78.28 77.26 76.77
58.03 56.62 52.74 51.90 52.15 51.49 56.77 56.37 54.03 57.85 63.09 62.87 65.83 68.10 69.51 70.02 68.84 68.83 69.39 69.93 70.87 71.31 72.45 73.31 77.33 77.81 78.87 78.27 77.86 78.18 77.89 77.75 77.79 77.82 75.51 72.81 75.50 74.96 79.02 80.35 80.65 78.91 79.43 79.16 78.80 78.23 78.29 77.77 76.23
56.34 56.74 52.67 48.85 49.21 49.39 57.13 53.21 58.47 59.27 62.82 62.82 63.39 67.11 69.46 70.00 70.11 69.07 69.46 69.76 70.41 71.43 72.55 73.36 76.07 77.25 77.28 77.63 78.51 80.35 79.07 76.79 76.68 76.94 75.96 75.40 77.19 76.96 80.77 79.75 80.17 79.10 79.12 78.91 79.44 77.95 77.17 78.10 77.06
54.07 54.50 58.16 53.83 53.68 51.36 53.77 56.84 60.33 62.28 60.89 63.16 64.02 64.03 68.01 69.82 70.22 69.52 69.72 69.72 70.34 71.56 72.61 73.52 75.45 77.13 77.36 77.25 79.46 79.51 79.37 79.01 77.44 80.24 77.69 76.36 78.20 75.72 80.40 79.04 79.74 79.33 79.38 79.15 79.98 77.99 77.76 77.73 77.90
54.17 56.92 53.17 54.35 49.39 48.39 51.22 53.02 54.35 58.50 58.76 59.28 62.86 63.97 66.65 69.48 70.43 70.50 70.29 70.14 70.63 71.48 72.74 74.04 76.31 76.97 77.08 76.76 77.42 77.67 78.25 79.04 78.72 78.10 78.07 79.84 77.81 77.03 71.93 78.64 78.49 79.35 80.70 80.57 80.29 78.84 79.73 78.33 77.22
52.48 51.80 54.09 55.40 53.88 49.65 48.69 51.22 57.14 58.00 57.98 57.71 59.46 63.90 65.69 68.25 70.33 70.65 70.74 70.86 70.56 71.62 72.73 73.83 75.83 76.47 76.69 76.48 77.45 78.35 77.83 78.06 78.21 77.73 78.28 79.12 78.90 79.73 79.09 80.09 78.94 78.36 79.00 79.29 79.54 79.30 78.61 78.52 78.62
54.53 52.76 52.72 51.06 51.78 53.53 51.79 51.52 57.89 58.59 58.50 58.76 58.85 60.92 66.22 68.86 70.63 71.14 71.09 70.48 70.10 71.72 72.67 74.31 75.11 75.97 76.91 77.18 78.83 77.64 78.03 78.44 77.30 77.43 77.82 78.42 79.13 79.30 78.94 78.81 78.53 78.40 78.91 79.13 78.76 77.82 78.43 78.19 77.83
MSLP
1008.19 1008.14 1007.52 1006.39 1006.62 1005.50 1005.70 1006.40 1006.74 1007.35 1007.90 1009.04 1009.57 1009.42 1009.04 1009.45 1009.62 1011.11 1011.86 1012.56 1012.36 1013.21 1014.56 1015.26 1015.79 1015.98 1016.33 1016.53 1016.79 1016.93 1016.94 1017.01 1017.09 1017.15 1017.06 1017.13 1017.20 1017.15 1017.22 1017.28 1017.32 1017.36 1017.59 1017.58 1017.64 1017.75 1017.98 1018.03 1018.07
1006.92 1007.20 1006.34 1004.92 1004.79 1004.40 1006.05 1006.48 1006.86 1007.21 1008.14 1009.14 1009.62 1009.65 1008.84 1009.60 1010.49 1011.94 1012.52 1012.77 1012.28 1013.16 1013.88 1015.15 1016.21 1016.30 1016.61 1016.79 1016.95 1017.10 1017.16 1017.29 1017.39 1017.48 1017.47 1017.45 1017.48 1017.46 1017.36 1017.52 1017.53 1017.68 1017.85 1017.94 1018.04 1018.08 1018.27 1018.41 1018.47
1006.50 1006.03 1005.03 1002.43 1002.55 1003.87 1005.86 1006.24 1006.87 1007.56 1008.82 1009.08 1010.18 1009.82 1009.23 1010.89 1011.44 1012.06 1012.86 1013.13 1012.61 1013.09 1013.93 1015.99 1016.56 1016.62 1016.84 1017.02 1017.22 1017.28 1017.32 1017.53 1017.69 1017.75 1017.76 1017.71 1017.66 1017.61 1017.60 1017.64 1017.73 1017.90 1018.12 1018.27 1018.38 1018.47 1018.54 1018.62 1018.71
1005.63 1004.64 1003.03 1001.20 1002.40 1003.88 1005.00 1005.98 1006.70 1007.79 1009.12 1009.64 1009.99 1009.85 1010.19 1010.98 1011.76 1012.42 1013.20 1013.59 1013.41 1014.02 1014.45 1016.27 1016.60 1016.90 1017.03 1017.20 1017.45 1017.62 1017.55 1017.69 1017.89 1017.92 1017.94 1017.96 1017.93 1017.86 1017.74 1017.88 1017.98 1018.22 1018.46 1018.53 1018.69 1018.88 1018.84 1018.97 1019.06
1004.64 1002.18 1001.46 1002.02 1002.92 1003.81 1005.10 1005.86 1006.49 1007.22 1008.26 1009.05 1009.00 1009.68 1010.75 1011.16 1012.03 1012.46 1013.03 1013.23 1012.92 1013.39 1015.00 1016.20 1016.81 1017.03 1017.29 1017.46 1017.49 1017.74 1017.84 1017.77 1018.00 1018.05 1018.06 1018.09 1018.14 1018.14 1018.13 1018.16 1018.24 1018.43 1018.64 1018.67 1018.99 1019.12 1019.26 1019.27 1019.38
1002.18 1000.08 1000.65 1002.00 1003.15 1003.96 1004.73 1005.40 1006.08 1006.57 1007.08 1007.94 1008.59 1009.88 1011.64 1011.68 1011.94 1012.30 1012.54 1012.39 1012.15 1013.31 1014.68 1016.17 1017.05 1017.26 1017.37 1017.59 1017.71 1017.84 1018.06 1017.95 1018.01 1018.16 1018.18 1018.21 1018.35 1018.41 1018.41 1018.39 1018.42 1018.61 1018.80 1018.90 1019.11 1019.37 1019.55 1019.61 1019.70
1001.64 999.64 1001.04 1002.29 1003.33 1004.02 1004.54 1004.95 1005.13 1005.72 1006.41 1006.98 1007.58 1008.88 1010.71 1011.10 1011.53 1012.23 1012.79 1013.06 1013.34 1013.83 1014.50 1015.56 1016.40 1017.19 1017.62 1017.70 1017.90 1017.92 1018.07 1018.01 1017.96 1018.16 1018.28 1018.33 1018.52 1018.53 1018.59 1018.57 1018.69 1018.80 1018.97 1019.09 1019.19 1019.44 1019.69 1019.91 1020.01
999.64 999.68 1000.56 1001.85 1002.98 1004.16 1004.80 1004.67 1004.97 1005.21 1005.77 1006.64 1006.91 1008.16 1009.53 1010.49 1011.40 1012.27 1013.29 1013.85 1014.14 1014.21 1014.46 1015.07 1015.79 1016.47 1016.97 1017.53 1017.77 1017.95 1017.93 1018.00 1017.98 1018.09 1018.22 1018.31 1018.47 1018.42 1018.48 1018.60 1018.72 1018.89 1019.07 1019.26 1019.38 1019.59 1019.78 1019.96 1020.17
999.83 999.43 1000.46 1001.61 1002.82 1004.06 1004.75 1004.90 1004.97 1005.42 1006.26 1006.56 1006.69 1007.51 1009.03 1010.53 1011.17 1012.12 1013.07 1013.65 1014.27 1014.59 1014.70 1014.66 1015.48 1015.79 1016.05 1016.53 1017.42 1017.85 1017.84 1017.88 1017.85 1017.81 1017.96 1018.09 1018.37 1018.42 1018.07 1018.40 1018.64 1018.92 1019.09 1019.29 1019.51 1019.72 1019.92 1020.04 1020.15
999.18 999.55 1000.99 1002.01 1002.96 1003.87 1004.59 1004.97 1005.33 1005.64 1005.91 1006.56 1006.69 1007.64 1009.33 1010.34 1011.05 1011.84 1012.62 1013.15 1013.92 1014.23 1014.18 1014.46 1014.97 1014.75 1015.50 1015.95 1017.16 1017.27 1016.93 1016.69 1016.87 1016.98 1017.58 1017.80 1017.73 1017.78 1017.77 1018.03 1018.53 1018.85 1019.03 1019.27 1019.54 1019.73 1019.87 1019.83 1019.11
999.61 1000.62 1001.65 1002.17 1003.07 1003.64 1004.31 1004.97 1005.24 1005.37 1005.66 1006.24 1006.83 1008.05 1009.27 1009.91 1010.55 1011.18 1012.36 1012.63 1013.32 1014.55 1014.80 1014.53 1014.27 1014.81 1014.63 1015.48 1016.27 1016.47 1016.43 1016.18 1016.35 1016.99 1017.26 1017.18 1017.63 1017.75 1017.84 1018.00 1018.00 1018.43 1018.89 1018.84 1019.30 1019.58 1019.31 1018.76 1019.01
1000.05 1000.76 1001.73 1002.60 1003.24 1003.82 1004.01 1004.64 1004.79 1004.89 1004.91 1005.85 1006.92 1008.08 1008.88 1009.47 1009.88 1010.30 1011.48 1012.64 1012.76 1013.88 1014.39 1014.51 1014.40 1014.99 1014.98 1015.28 1015.73 1015.46 1015.94 1015.70 1015.90 1016.02 1016.72 1016.97 1017.38 1017.67 1017.80 1018.09 1017.86 1018.10 1017.90 1018.34 1018.65 1018.66 1019.08 1018.89 1018.70
1000.02 1000.87 1001.81 1002.66 1003.18 1003.57 1004.26 1004.34 1004.67 1005.05 1005.34 1005.68 1006.86 1007.92 1008.61 1009.04 1009.41 1009.77 1010.58 1011.76 1012.70 1013.83 1013.66 1013.99 1014.43 1015.44 1015.66 1015.86 1015.18 1015.26 1015.85 1015.64 1015.86 1016.22 1016.81 1016.76 1017.13 1017.41 1017.49 1017.60 1017.85 1017.17 1018.05 1017.77 1018.12 1018.60 1018.92 1018.69 1018.27
999.98 1000.65 1001.72 1002.42 1002.92 1003.44 1003.70 1004.17 1004.73 1005.21 1005.37 1005.83 1006.83 1007.62 1008.19 1008.56 1008.94 1009.39 1010.02 1011.43 1012.43 1013.13 1013.46 1013.82 1014.55 1015.08 1015.38 1015.79 1015.73 1015.88 1016.29 1016.24 1015.64 1016.12 1016.69 1017.05 1017.12 1016.86 1017.43 1016.98 1017.65 1017.08 1017.40 1017.39 1017.81 1018.28 1018.36 1018.71 1018.56
1000.23 1000.70 1001.45 1002.11 1002.75 1003.30 1003.38 1004.09 1004.18 1004.97 1005.51 1006.03 1006.72 1007.44 1007.85 1008.23 1008.77 1009.30 1009.82 1010.69 1011.91 1012.49 1013.21 1013.31 1014.00 1014.48 1015.30 1015.48 1015.65 1015.94 1015.93 1015.63 1015.75 1016.04 1016.36 1016.93 1017.22 1017.04 1017.14 1016.88 1016.60 1017.05 1017.27 1017.46 1017.44 1018.16 1018.24 1018.23 1018.46
999.27 999.73 1000.12 1001.55 1002.34 1002.83 1003.48 1003.44 1003.75 1004.71 1005.33 1005.81 1006.47 1007.11 1007.61 1008.03 1008.48 1009.16 1009.78 1010.27 1011.16 1011.66 1012.42 1012.95 1013.30 1013.74 1014.86 1014.93 1015.29 1015.56 1015.57 1015.47 1015.50 1015.47 1015.58 1016.38 1016.92 1017.04 1017.22 1016.65 1016.44 1017.42 1018.03 1017.91 1018.16 1018.16 1018.25 1018.17 1018.34
999.57 999.88 999.27 1000.64 1001.73 1002.17 1002.84 1002.24 1003.39 1004.37 1004.81 1005.44 1006.11 1006.67 1007.18 1007.68 1008.15 1008.85 1009.51 1010.09 1010.71 1011.18 1012.37 1012.82 1013.21 1013.12 1014.15 1014.81 1014.97 1015.11 1015.68 1015.17 1015.35 1015.40 1015.22 1016.15 1016.69 1016.74 1017.03 1016.43 1016.34 1017.17 1017.49 1017.95 1017.95 1018.15 1018.46 1018.61 1018.82
999.54 998.50 998.54 998.90 1000.49 1001.32 1001.79 1001.67 1002.82 1003.75 1004.13 1004.87 1005.52 1006.03 1006.62 1007.12 1007.63 1008.46 1009.17 1009.75 1010.29 1010.99 1012.21 1012.70 1012.98 1013.03 1013.78 1014.58 1014.79 1015.14 1015.10 1014.93 1015.21 1015.39 1015.06 1015.93 1016.41 1016.77 1016.71 1016.38 1016.30 1016.83 1017.18 1016.79 1016.88 1017.86 1018.42 1018.56 1018.77
998.06 997.85 998.13 998.81 999.59 1000.36 1000.60 1000.69 1001.47 1002.69 1003.35 1003.89 1004.48 1005.27 1005.91 1006.47 1007.23 1007.97 1008.77 1009.38 1009.92 1010.79 1011.76 1012.47 1012.64 1013.23 1013.82 1014.10 1014.29 1014.45 1014.99 1014.95 1015.21 1014.91 1015.51 1015.85 1016.20 1016.72 1016.50 1015.70 1016.49 1016.83 1016.94 1016.95 1017.33 1017.86 1018.63 1018.60 1018.81
998.09 997.68 997.49 998.35 999.42 999.95 999.39 999.48 1000.03 1001.27 1002.11 1002.71 1003.41 1004.16 1005.04 1005.78 1006.45 1007.36 1008.26 1008.83 1009.47 1010.31 1011.22 1012.01 1012.53 1013.22 1013.87 1013.69 1013.83 1013.78 1014.14 1014.70 1015.03 1014.73 1015.27 1015.70 1016.00 1016.29 1016.23 1016.08 1016.20 1016.49 1016.67 1017.01 1017.06 1017.66 1017.22 1018.22 1018.51
997.77 997.10 998.02 997.81 998.60 998.69 998.60 999.32 999.72 1000.21 1001.29 1001.85 1002.44 1003.01 1003.96 1004.84 1005.52 1006.42 1007.43 1008.08 1008.94 1009.73 1010.61 1011.47 1012.25 1012.86 1013.56 1013.38 1013.85 1014.22 1014.26 1014.75 1014.69 1014.55 1015.13 1015.77 1015.83 1016.01 1016.13 1016.07 1016.30 1016.41 1016.09 1016.31 1017.08 1017.24 1017.33 1017.53 1017.25
996.72 997.14 997.60 998.09 997.99 997.53 998.71 1000.57 999.36 999.26 1000.11 1001.05 1001.48 1001.93 1002.69 1003.74 1004.84 1005.47 1006.33 1007.31 1008.04 1009.01 1010.01 1010.81 1011.84 1012.55 1013.27 1013.60 1013.52 1014.07 1014.19 1013.96 1013.95 1014.14 1014.18 1015.63 1015.92 1015.67 1015.94 1016.04 1016.27 1016.17 1016.17 1016.16 1016.70 1016.89 1016.80 1017.31 1017.23
997.04 997.79 997.70 997.67 997.43 996.50 996.17 997.16 997.77 998.80 998.91 999.54 1000.36 1000.92 1001.60 1002.54 1003.64 1004.46 1005.19 1006.18 1007.06 1008.14 1009.10 1010.05 1011.21 1012.13 1012.60 1013.22 1013.34 1013.90 1013.96 1013.58 1013.86 1013.61 1014.14 1014.74 1015.00 1015.25 1015.55 1015.90 1016.29 1016.40 1016.17 1016.19 1016.74 1016.82 1017.05 1016.81 1016.95
997.65 997.52 997.98 997.69 997.01 995.82 995.12 996.37 1000.13 997.98 997.99 998.30 998.89 999.80 1000.63 1001.33 1002.66 1003.61 1004.33 1005.21 1006.35 1007.27 1008.28 1009.19 1010.54 1011.68 1012.39 1012.96 1013.45 1013.68 1013.76 1013.51 1013.17 1013.19 1013.68 1014.21 1014.16 1014.40 1015.05 1015.71 1016.25 1016.25 1016.13 1016.23 1016.44 1016.71 1016.94 1017.00 1016.68
998.15 997.74 996.84 996.45 995.66 994.77 994.49 995.94 999.81 1001.20 997.31 997.05 997.01 998.23 999.56 1000.54 1001.64 1002.58 1003.41 1004.19 1005.44 1006.46 1007.57 1008.47 1009.95 1011.25 1012.03 1012.62 1013.14 1013.48 1013.72 1013.93 1013.35 1013.19 1014.44 1014.49 1014.80 1013.92 1014.05 1015.25 1016.02 1016.25 1016.12 1016.19 1016.38 1016.82 1016.76 1016.90 1016.89
997.31 997.09 995.95 994.90 994.10 993.98 994.11 994.94 996.91 999.07 996.27 996.43 996.42 996.58 998.37 999.67 1000.55 1001.72 1002.83 1003.65 1004.72 1005.81 1006.90 1008.03 1009.43 1010.79 1011.57 1012.15 1012.66 1013.15 1013.62 1013.53 1013.37 1013.29 1013.98 1014.70 1013.97 1013.59 1013.85 1015.13 1015.04 1015.48 1016.05 1016.11 1016.14 1016.38 1016.59 1016.51 1016.82
996.48 996.27 996.16 994.85 994.52 994.18 995.37 994.04 994.18 994.70 994.93 995.10 995.25 996.12 997.37 998.60 999.84 1000.86 1002.05 1003.13 1004.10 1005.40 1006.51 1007.72 1009.03 1010.29 1010.97 1011.48 1012.21 1012.73 1013.20 1013.22 1012.89 1012.50 1012.78 1013.49 1013.87 1013.45 1012.89 1015.63 1016.08 1014.93 1015.58 1015.90 1016.25 1016.13 1016.47 1016.62 1016.83
996.39 995.83 995.86 995.48 994.49 994.00 993.55 993.55 993.39 994.02 994.15 994.54 994.73 995.78 996.55 997.90 999.30 1000.17 1001.15 1002.35 1003.56 1004.83 1006.12 1007.37 1008.68 1009.67 1010.28 1010.74 1011.67 1012.24 1012.66 1013.05 1013.05 1012.86 1012.82 1012.66 1013.59 1013.10 1014.61 1015.87 1016.30 1015.26 1015.40 1015.90 1016.15 1015.68 1016.12 1016.41 1016.30
996.42 996.10 995.68 995.16 994.96 994.32 993.59 993.12 992.69 993.45 994.20 994.65 994.87 995.63 995.87 997.07 998.49 999.58 1000.56 1001.86 1003.08 1004.36 1005.56 1006.89 1008.19 1009.12 1009.77 1010.14 1010.90 1011.43 1011.99 1012.49 1012.99 1012.96 1013.10 1013.42 1014.57 1015.04 1015.57 1015.80 1015.96 1014.89 1015.07 1015.61 1015.99 1016.03 1016.10 1016.21 1016.24
995.75 995.51 995.70 994.90 994.65 993.81 993.55 993.44 993.40 993.37 993.60 994.29 994.54 995.13 995.69 996.64 997.89 999.03 1000.08 1001.31 1002.42 1003.67 1004.82 1006.18 1007.55 1008.38 1008.72 1008.97 1010.03 1010.87 1011.52 1011.90 1012.29 1012.65 1012.75 1012.98 1013.52 1014.62 1015.22 1015.25 1014.81 1014.53 1015.09 1015.50 1015.79 1015.81 1015.58 1015.97 1016.20
Wind_Speed
15 13 12 5 5 2 8 9 15 18 10 11 6 4 11 12 9 10 17 11 17 17 16 15 13 15 15 14 13 12 11 10 10 9 10 10 11 10 11 11 11 10 11 13 14 15 15 14 15
14 14 9 8 4 7 8 11 15 11 15 14 11 2 3 15 16 17 12 13 17 17 17 16 12 14 14 14 12 11 11 10 10 9 10 10 9 9 10 12 10 12 12 14 14 16 16 15 15
14 12 7 5 10 9 9 12 15 16 9 7 4 6 6 12 15 9 17 12 10 13 19 16 13 13 14 13 12 11 10 10 9 8 8 8 9 9 9 12 12 13 15 15 15 15 16 16 15
9 7 11 8 16 16 15 17 16 16 10 4 9 11 17 15 8 13 20 15 11 11 17 15 14 12 13 12 10 9 9 9 7 7 7 7 7 9 9 10 12 14 13 14 15 14 16 15 16
10 10 9 11 15 18 18 17 13 15 10 9 14 12 11 8 18 17 19 17 18 18 17 15 12 11 10 9 10 7 7 8 6 6 5 5 4 5 6 7 10 12 13 14 14 13 12 14 13
11 5 10 10 15 15 14 17 15 5 17 14 14 16 6 9 20 17 17 14 14 17 17 15 12 11 10 8 9 7 6 6 5 3 3 2 1 2 2 4 7 10 11 12 12 11 11 10 12
19 6 13 13 13 13 12 10 12 13 13 14 16 15 17 19 18 17 13 10 10 12 16 14 14 11 9 8 6 7 4 4 3 1 1 1 3 1 3 4 5 8 11 11 11 11 10 9 8
1 5 12 13 11 13 8 9 10 12 15 14 15 9 18 19 19 18 16 12 12 12 12 13 12 12 10 9 9 7 5 5 4 3 4 3 3 3 6 7 8 8 8 11 11 10 10 9 7
11 2 8 12 13 11 11 13 9 12 13 11 3 18 21 21 19 16 14 14 10 10 11 12 10 11 8 7 10 8 8 8 8 9 10 8 6 4 6 9 9 8 10 9 10 10 9 8 8
6 12 12 13 14 13 13 11 11 13 13 10 11 23 23 22 20 19 17 16 14 11 13 11 10 11 10 9 10 8 9 10 6 3 7 2 2 4 2 10 9 8 9 10 10 10 10 12 9
15 12 10 14 14 15 13 12 15 13 12 13 16 22 21 21 19 19 16 12 14 13 7 8 7 8 7 7 6 4 5 2 5 4 3 2 2 2 4 3 8 8 9 8 10 9 9 12 2
11 16 14 15 13 14 13 14 10 14 10 15 15 19 20 19 18 17 16 14 14 13 15 13 10 5 6 5 7 8 5 4 3 5 2 4 2 1 4 5 5 6 6 6 5 5 5 7 8
13 12 14 14 13 12 12 9 10 5 4 13 18 18 18 17 17 16 17 17 13 14 12 13 10 9 6 6 4 2 4 1 1 5 3 2 3 3 4 5 4 4 7 7 6 2 8 6 7
7 14 14 12 11 11 10 10 10 7 9 13 17 18 17 17 16 14 15 15 12 12 12 10 10 11 9 7 3 2 2 4 4 4 4 5 3 2 3 5 8 7 3 4 10 9 4 3 3
11 14 12 12 11 10 8 10 9 12 11 14 16 16 16 15 15 14 13 16 15 14 15 15 14 13 10 9 8 5 7 3 4 4 9 6 5 4 2 4 4 3 2 2 5 5 6 6 8
12 18 14 11 11 9 11 10 10 14 15 15 17 16 15 15 15 13 13 12 15 14 14 12 10 15 12 9 7 4 6 6 3 6 4 6 5 3 2 5 5 5 1 3 2 3 1 4 3
14 14 19 14 12 7 13 11 13 15 15 16 16 16 15 15 15 15 15 13 16 14 14 13 12 13 14 10 7 5 8 5 2 2 4 8 5 5 4 7 6 7 7 5 7 7 3 2 3
17 16 3 11 16 12 11 4 14 15 16 16 17 17 17 16 17 16 16 15 16 14 14 13 12 9 11 11 6 2 4 3 6 3 2 7 5 3 5 3 5 5 5 7 6 6 6 4 4
12 1 3 6 12 13 12 12 16 18 17 17 18 17 18 18 18 18 16 16 15 15 14 13 12 10 8 7 8 8 4 3 3 4 5 5 7 8 6 5 6 4 5 3 3 3 4 4 4
8 9 10 9 6 9 11 13 19 18 19 18 18 18 18 19 20 19 19 18 17 16 16 15 12 11 10 9 7 6 8 2 4 5 6 6 5 5 8 8 6 7 5 5 5 5 3 2 4
12 15 3 2 8 14 10 12 13 19 16 17 18 18 18 20 21 22 21 19 18 18 16 15 14 13 12 10 6 4 2 2 6 5 6 5 6 8 7 5 3 5 7 5 4 6 2 4 3
19 9 3 6 12 6 13 8 28 19 19 18 18 18 19 21 22 22 22 21 20 18 17 16 15 13 12 10 8 8 7 8 5 7 7 7 8 7 6 5 4 5 2 8 7 8 4 2 2
15 2 6 6 13 18 13 8 14 17 19 17 20 20 20 22 22 22 22 22 20 18 17 17 16 14 11 12 8 8 9 6 6 7 9 5 9 7 7 6 6 5 7 3 4 5 3 4 5
12 6 11 14 13 14 15 10 11 12 14 17 19 20 21 21 21 22 21 22 18 18 17 17 16 13 13 12 12 10 9 7 5 6 6 9 8 9 7 5 5 5 6 2 4 3 5 6 4
15 13 12 13 12 13 2 3 14 17 5 7 17 20 21 21 21 21 21 19 19 19 18 15 16 14 14 15 14 12 9 9 7 7 6 11 5 4 12 8 7 7 4 5 5 5 5 4 5
20 19 15 13 13 12 14 5 11 37 10 7 6 14 20 22 20 21 20 18 19 18 17 15 18 16 17 16 14 11 12 9 9 10 8 11 1 8 14 7 7 5 5 5 4 6 6 5 5
20 19 22 24 19 17 19 10 14 14 6 10 11 7 17 22 22 22 22 20 20 17 16 16 17 16 17 17 13 13 12 11 9 9 8 8 6 6 12 7 2 5 5 5 5 6 5 3 6
21 14 16 16 17 15 9 10 2 7 2 7 11 7 16 19 23 21 21 21 18 18 17 19 18 17 17 17 14 13 13 11 9 6 7 8 7 16 9 5 6 5 6 7 6 4 7 5 6
13 17 14 18 16 15 13 8 3 10 4 3 3 7 10 18 22 21 19 19 19 19 19 19 18 17 16 15 14 13 13 13 11 10 8 8 4 4 4 5 4 4 5 6 5 6 4 6 6
21 20 21 14 17 15 12 6 6 3 3 2 4 4 10 16 21 20 20 20 21 21 20 19 17 17 16 15 15 15 13 12 13 11 10 9 6 6 6 5 3 3 4 4 5 6 7 4 6
Wind_Direction
171 185 219 212 226 89 106 110 119 121 106 94 180 130 59 42 51 89 131 126 127 121 123 127 126 126 128 126 123 120 114 107 97 91 80 69 74 89 100 99 96 105 116 110 117 109 105 108 106
175 190 227 255 224 115 91 110 120 108 102 122 81 324 61 58 86 114 120 152 133 127 135 129 120 122 126 124 122 119 111 102 92 81 77 77 75 84 97 96 97 93 119 119 119 109 107 106 104
247 206 260 220 62 90 119 143 134 108 117 81 82 328 24 110 113 106 123 147 147 120 104 111 125 124 124 125 124 120 109 101 94 92 79 75 71 67 83 100 99 97 113 114 113 112 111 111 110
188 215 247 62 68 101 125 128 127 110 108 70 114 94 94 102 98 129 136 142 125 132 117 125 130 129 130 130 121 120 114 110 112 104 98 80 69 66 67 89 103 108 113 123 119 120 108 104 105
242 251 84 92 83 102 121 143 166 136 138 168 153 117 100 90 125 137 136 165 154 151 119 132 129 131 130 136 126 121 115 104 91 86 80 78 74 76 74 76 106 115 127 120 127 118 114 113 111
260 244 119 100 98 100 118 143 140 117 140 120 127 125 108 137 142 145 156 157 143 119 141 136 131 134 137 139 132 129 133 122 117 109 97 86 114 110 101 89 97 125 130 130 135 134 124 116 115
240 76 95 107 112 112 124 149 160 152 135 145 127 117 133 162 143 142 138 136 104 129 141 150 155 145 149 148 160 153 167 162 149 152 141 28 7 283 177 151 139 133 143 142 143 147 147 135 131
310 109 124 129 114 109 134 150 134 149 94 118 127 129 148 144 147 145 142 151 159 167 135 156 158 168 173 171 179 191 186 213 210 223 226 214 2 308 188 172 154 161 152 151 146 145 151 156 157
272 136 95 126 130 124 122 137 141 89 136 164 122 140 133 144 146 141 151 155 158 177 170 167 171 183 191 163 165 194 201 222 223 224 215 228 171 238 177 142 143 161 160 163 158 156 157 164 173
229 63 74 79 111 125 130 139 129 152 139 129 142 112 139 154 154 163 166 164 176 174 181 174 188 170 171 182 146 221 193 198 186 235 154 92 61 127 142 131 148 151 169 170 168 173 183 201 171
92 106 105 106 117 131 129 130 153 148 159 152 136 143 154 161 169 160 172 163 166 173 208 230 154 192 175 180 155 197 227 174 154 180 180 132 130 82 150 169 161 156 175 177 180 178 210 210 239
98 96 101 109 131 130 140 140 156 181 163 156 149 152 162 171 175 171 160 172 180 172 170 206 168 174 258 120 210 192 183 193 158 143 207 122 95 211 133 161 202 187 171 162 163 219 30 296 194
120 105 115 127 134 143 136 149 135 144 182 145 151 160 171 181 177 177 167 167 168 174 196 178 171 168 194 234 214 81 68 225 35 128 133 92 168 195 221 136 187 217 162 171 182 180 203 188 245
128 121 121 142 147 135 160 135 177 149 147 152 158 172 179 186 181 172 170 154 179 184 178 170 187 163 191 201 240 63 115 260 179 104 113 144 209 214 162 180 176 192 176 211 158 191 202 211 248
142 135 142 152 161 153 168 152 222 151 155 159 169 175 182 186 181 178 183 163 181 183 174 173 187 165 182 198 192 152 225 261 197 127 132 166 214 178 177 248 115 137 197 289 170 160 233 189 219
207 167 158 149 163 157 192 175 177 165 170 170 174 179 182 186 182 179 182 182 170 184 163 166 190 160 176 174 181 205 140 232 228 180 153 175 164 134 209 221 158 136 179 206 222 228 233 229 331
194 295 137 151 183 158 208 139 151 177 179 175 182 181 184 184 187 176 177 186 162 170 166 183 187 178 158 150 196 167 235 195 212 167 201 149 172 185 202 229 125 172 181 193 203 167 183 234 257
277 150 162 146 167 193 200 151 160 186 190 183 190 184 187 189 189 172 177 187 164 165 168 198 173 175 163 153 215 189 213 197 161 207 139 144 176 188 220 242 134 227 282 181 163 133 147 251 185
229 290 189 117 125 198 211 223 171 181 198 188 193 189 191 193 186 173 183 178 173 169 174 186 187 167 180 204 193 203 189 184 176 174 125 184 169 203 214 204 180 211 262 88 177 150 188 205 173
236 234 185 122 157 220 216 220 163 185 200 198 197 188 195 193 185 187 186 179 181 178 175 181 193 168 203 191 214 209 196 148 97 215 166 223 189 186 223 268 183 193 182 223 189 206 201 132 185
241 252 172 34 166 222 227 228 204 179 198 207 204 195 192 195 198 189 187 189 188 181 182 183 188 177 195 235 196 191 198 156 208 196 176 188 191 214 234 193 338 192 247 169 181 196 204 264 163
251 221 96 242 246 238 240 111 235 180 186 201 205 204 193 193 198 191 189 193 190 185 185 185 186 189 190 204 182 183 204 203 196 206 148 156 211 209 190 193 228 227 305 219 166 213 218 138 212
266 240 251 247 263 266 214 260 129 170 178 197 208 204 204 187 193 201 194 188 196 186 187 185 183 187 191 188 226 176 236 194 185 240 123 211 175 204 193 190 200 224 255 123 248 112 253 177 277
281 235 246 251 252 266 254 213 162 198 170 186 192 209 204 195 194 197 198 185 195 188 191 184 174 182 193 189 203 197 194 250 213 204 173 193 187 171 187 165 213 208 242 143 209 207 215 265 316
236 235 234 219 222 242 198 261 135 310 192 116 174 187 201 203 189 194 198 194 184 190 187 185 162 181 188 189 194 194 207 218 238 231 212 24 273 207 143 163 190 187 208 192 214 207 226 225 259
209 238 249 236 243 241 140 198 148 194 152 127 113 171 188 194 191 190 195 195 181 187 184 185 162 181 187 187 193 194 197 202 219 219 252 186 278 201 131 150 161 177 182 220 198 211 235 198 228
241 215 249 271 280 283 200 177 148 208 143 160 135 168 174 188 196 188 185 192 183 184 180 186 169 181 186 189 191 191 195 225 217 244 216 232 212 43 113 139 181 157 190 212 187 245 204 261 211
244 251 222 251 274 274 271 231 192 141 52 4 114 163 167 185 190 189 186 188 180 178 178 184 170 181 188 189 190 193 195 205 234 218 250 291 21 110 228 179 179 185 172 208 214 240 179 219 251
202 245 255 261 220 259 265 256 209 106 131 273 122 205 166 175 184 190 189 183 176 177 175 177 175 180 186 195 186 189 199 195 206 217 213 238 197 85 172 201 208 187 194 206 214 274 257 218 242
244 215 233 241 249 263 268 248 92 119 127 276 314 155 158 174 179 187 185 179 181 181 180 178 180 182 188 187 174 187 192 200 195 217 204 210 223 189 182 200 194 206 205 216 227 252 299 253 276